Location: Dal�� Lhota
(48.7500°N, 14.0167°E)
Time: 06:54:02
(UTC+00:00)

Courier 1B Rocket - Pass Details

Date: 05 August 2021
Orbit: 920 x 1202 km, 28.3° (Epoch: 27 September)

Event Time Altitude Azimuth Distance (km) Brightness Sun altitude
Rises 00:59:05 0° 231° (SW) 3,831 - -20.0°
Reaches altitude 10° 01:03:56 10° 203° (SSW) 2,801 - -19.6°
Maximum altitude 01:06:17 12° 182° (S) 2,623 - -19.4°
Drops below altitude 10° 01:08:36 10° 161° (SSE) 2,733 - -19.2°
Exits shadow 01:09:46 - 152° (SSE) 2,890 7.2 -19.1°
Sets 01:13:10 0° 132° (SE) 3,622 7.9 -18.8°
